User: anonymous   Login
Location: Albany
(35.0000°S, 118.0000°E)
Time: 12:23:59
(UTC-05:00)
Language:

Transit 2A - Orbit

View from above orbital plane
View from above orbital plane
View from above satellite
View from above satellite

Ground track
Ground track

The orbit data is extracted from the following two-line orbital elements,

1 00045U 60007A   15058.09152690  .00000395  00000-0  12403-3 0  9993
2 00045 066.6935 085.3219 0263869 285.2375 071.9693 14.33266690845013
Epoch (UTC): 27 February 2015 02:11:47
Eccentricity: 0.0263869
inclination: 66.6935°
perigee height: 592 km
apogee height: 970 km
right ascension of ascending node: 85.3219°
argument of perigee: 285.2375°
revolutions per day: 14.33266690
mean anomaly at epoch: 71.9693°
orbit number at epoch: 84501

The dashed part of the orbit path shows where the satellite is in the earth's shadow,  

DLR